When you browse on this site, cookies collect data to enhance your experience and personalize the content and advertising you see.
Visit our Privacy Policy to learn more. By continuing to use the site, you agree to this use of cookies and data.
  • En España
  • Lista de países
  • Para 7 días
  • Temperatura del agua
  • El tiempo en el mapa
  • Informadores
  • user-avatar
    Iniciar sesión

    Tiempo cada hora Karlsruhe

    Hoy, 3 Junio, Miércoles

    Tiempo Temperatura Precipitaciones Viento Presión Humedad
    00:00 +19°C° 0.1 mm 1 mps 748 mmHg 76%
    01:00 +18°C° 0 mm 1 mps 747 mmHg 74%
    02:00 +18°C° 0.1 mm 1 mps 747 mmHg 76%
    03:00 +18°C° 0.1 mm 1 mps 746 mmHg 78%
    04:00 +16°C° 0.1 mm 1 mps 746 mmHg 80%
    05:00 +18°C° 0.2 mm 1 mps 746 mmHg 81%
    06:00 +19°C° 0.2 mm 1 mps 746 mmHg 82%
    07:00 +19°C° 0 mm 2 mps 746 mmHg 77%
    08:00 +21°C° 0.2 mm 2 mps 745 mmHg 72%
    09:00 +23°C° 0.2 mm 2 mps 745 mmHg 67%
    10:00 +25°C° 0.2 mm 2 mps 744 mmHg 62%
    11:00 +26°C° 0.3 mm 2 mps 744 mmHg 56%
    12:00 +27°C° 0.3 mm 2 mps 743 mmHg 50%
    13:00 +28°C° 0.3 mm 2 mps 743 mmHg 44%
    14:00 +28°C° 0.2 mm 2 mps 742 mmHg 45%
    15:00 +28°C° 0.2 mm 2 mps 742 mmHg 47%
    16:00 +27°C° 0.2 mm 2 mps 741 mmHg 48%
    17:00 +25°C° 0.4 mm 2 mps 741 mmHg 56%
    18:00 +23°C° 0.4 mm 2 mps 740 mmHg 64%
    19:00 +20°C° 0.4 mm 2 mps 740 mmHg 72%
    20:00 +19°C° 0.4 mm 2 mps 740 mmHg 76%
    21:00 +19°C° 0.4 mm 1 mps 740 mmHg 79%
    22:00 +18°C° 0.4 mm 1 mps 740 mmHg 82%
    23:00 +17°C° 0.4 mm 2 mps 740 mmHg 84%

    Mañana, 4 Junio, Jueves

    Tiempo Temperatura Precipitaciones Viento Presión Humedad
    00:00 +17°C° 0.4 mm 2 mps 739 mmHg 86%
    01:00 +17°C° 0.4 mm 2 mps 739 mmHg 88%
    02:00 +17°C° 0.2 mm 2 mps 739 mmHg 89%
    03:00 +17°C° 0.2 mm 2 mps 738 mmHg 91%
    04:00 +16°C° 0.2 mm 2 mps 738 mmHg 92%
    05:00 +17°C° 0.4 mm 2 mps 737 mmHg 91%
    06:00 +17°C° 0.4 mm 2 mps 737 mmHg 90%
    07:00 +18°C° 0.4 mm 3 mps 737 mmHg 89%
    08:00 +18°C° 0.7 mm 3 mps 737 mmHg 87%
    09:00 +19°C° 0.7 mm 3 mps 737 mmHg 84%
    10:00 +19°C° 0.7 mm 4 mps 737 mmHg 81%
    11:00 +19°C° 0.7 mm 4 mps 736 mmHg 79%
    12:00 +20°C° 0.7 mm 4 mps 736 mmHg 77%
    13:00 +20°C° 0.7 mm 3 mps 736 mmHg 75%
    14:00 +20°C° 1.1 mm 3 mps 736 mmHg 76%
    15:00 +20°C° 1.1 mm 3 mps 736 mmHg 77%
    16:00 +19°C° 1.1 mm 3 mps 736 mmHg 78%
    17:00 +18°C° 0.7 mm 3 mps 736 mmHg 80%
    18:00 +17°C° 0.7 mm 3 mps 736 mmHg 82%
    19:00 +16°C° 0.7 mm 3 mps 736 mmHg 84%
    20:00 +15°C° 0.1 mm 2 mps 737 mmHg 85%
    21:00 +14°C° 0.1 mm 2 mps 737 mmHg 86%
    22:00 +13°C° 0.1 mm 1 mps 738 mmHg 87%
    23:00 +13°C° 0.1 mm 1 mps 738 mmHg 87%

    Pasado mañana, 5 Junio, Viernes

    Tiempo Temperatura Precipitaciones Viento Presión Humedad
    00:00 +13°C° 0.1 mm 1 mps 738 mmHg 87%
    01:00 +13°C° 0.1 mm 1 mps 738 mmHg 87%
    02:00 +13°C° 0.1 mm 1 mps 739 mmHg 87%
    03:00 +12°C° 0.1 mm 1 mps 739 mmHg 88%
    04:00 +12°C° 0.1 mm 1 mps 739 mmHg 89%
    05:00 +12°C° 0.8 mm 1 mps 740 mmHg 90%
    06:00 +12°C° 0.8 mm 2 mps 740 mmHg 90%
    07:00 +10°C° 0.8 mm 2 mps 741 mmHg 91%
    08:00 +12°C° 0.2 mm 3 mps 741 mmHg 84%
    09:00 +13°C° 0.2 mm 3 mps 741 mmHg 76%
    10:00 +14°C° 0.2 mm 4 mps 741 mmHg 68%
    11:00 +15°C° 0.1 mm 5 mps 741 mmHg 62%
    12:00 +17°C° 0.1 mm 6 mps 740 mmHg 56%
    13:00 +18°C° 0.1 mm 7 mps 740 mmHg 49%
    14:00 +16°C° 0.3 mm 7 mps 740 mmHg 61%
    15:00 +14°C° 0.3 mm 7 mps 740 mmHg 73%
    16:00 +12°C° 0.3 mm 8 mps 740 mmHg 84%
    17:00 +11°C° 0.3 mm 7 mps 740 mmHg 86%
    18:00 +11°C° 0.3 mm 6 mps 740 mmHg 87%
    19:00 +11°C° 0.3 mm 6 mps 740 mmHg 88%
    20:00 +11°C° 0.3 mm 6 mps 741 mmHg 89%
    21:00 +12°C° 0.3 mm 5 mps 741 mmHg 90%
    22:00 +12°C° 0.3 mm 5 mps 741 mmHg 91%
    23:00 +12°C° 0.9 mm 5 mps 741 mmHg 92%

    6 Junio, Sábado

    Tiempo Temperatura Precipitaciones Viento Presión Humedad
    00:00 +13°C° 0.9 mm 5 mps 740 mmHg 93%
    01:00 +13°C° 0.9 mm 5 mps 740 mmHg 94%
    02:00 +13°C° 2.1 mm 5 mps 740 mmHg 94%
    03:00 +13°C° 2.1 mm 5 mps 741 mmHg 95%
    04:00 +13°C° 2.1 mm 4 mps 741 mmHg 95%
    05:00 +13°C° 1.2 mm 4 mps 741 mmHg 94%
    06:00 +12°C° 1.2 mm 3 mps 742 mmHg 94%
    07:00 +12°C° 1.2 mm 3 mps 742 mmHg 93%
    08:00 +12°C° 0.6 mm 3 mps 742 mmHg 91%
    09:00 +12°C° 0.6 mm 3 mps 743 mmHg 90%
    10:00 +11°C° 0.6 mm 3 mps 743 mmHg 88%
    11:00 +11°C° 0.8 mm 3 mps 743 mmHg 89%
    12:00 +12°C° 0.8 mm 2 mps 743 mmHg 91%
    13:00 +12°C° 0.8 mm 2 mps 743 mmHg 92%
    14:00 +13°C° 0.6 mm 2 mps 743 mmHg 93%
    15:00 +13°C° 0.6 mm 2 mps 743 mmHg 93%
    16:00 +13°C° 0.6 mm 2 mps 743 mmHg 93%
    17:00 +13°C° 0.4 mm 2 mps 743 mmHg 94%
    18:00 +13°C° 0.4 mm 2 mps 743 mmHg 94%
    19:00 +13°C° 0.4 mm 2 mps 744 mmHg 94%
    20:00 +13°C° 0.1 mm 2 mps 744 mmHg 94%
    21:00 +13°C° 0.1 mm 2 mps 744 mmHg 95%
    22:00 +12°C° 0.1 mm 2 mps 745 mmHg 95%
    23:00 +12°C° 0 mm 2 mps 745 mmHg 95%

    7 Junio, Domingo

    Tiempo Temperatura Precipitaciones Viento Presión Humedad
    00:00 +12°C° 0 mm 2 mps 744 mmHg 95%
    01:00 +12°C° 0 mm 2 mps 744 mmHg 95%
    02:00 +12°C° 0 mm 1 mps 744 mmHg 95%
    03:00 +12°C° 0 mm 1 mps 744 mmHg 95%
    04:00 +12°C° 0 mm 1 mps 744 mmHg 95%
    05:00 +12°C° 0.5 mm 2 mps 745 mmHg 94%
    06:00 +10°C° 0.5 mm 2 mps 745 mmHg 93%
    07:00 +10°C° 0.5 mm 3 mps 745 mmHg 92%
    08:00 +11°C° 0.9 mm 3 mps 746 mmHg 87%
    09:00 +11°C° 0.9 mm 3 mps 747 mmHg 82%
    10:00 +12°C° 0.9 mm 3 mps 748 mmHg 78%
    11:00 +13°C° 0 mm 3 mps 748 mmHg 70%
    12:00 +14°C° 0 mm 3 mps 748 mmHg 62%
    13:00 +17°C° 0 mm 4 mps 748 mmHg 54%
    14:00 +17°C° 0 mm 4 mps 748 mmHg 53%
    15:00 +18°C° 0 mm 3 mps 748 mmHg 51%
    16:00 +18°C° 0 mm 3 mps 748 mmHg 50%
    17:00 +17°C° 0 mm 3 mps 748 mmHg 55%
    18:00 +17°C° 0 mm 2 mps 748 mmHg 60%
    19:00 +16°C° 0 mm 2 mps 748 mmHg 65%
    20:00 +15°C° 0 mm 2 mps 748 mmHg 70%
    21:00 +13°C° 0 mm 1 mps 749 mmHg 74%
    22:00 +11°C° 0 mm 1 mps 749 mmHg 79%
    23:00 +11°C° 0 mm 1 mps 749 mmHg 81%

    8 Junio, Lunes

    Tiempo Temperatura Precipitaciones Viento Presión Humedad
    00:00 +9°C° 0 mm 2 mps 749 mmHg 83%
    01:00 +9°C° 0 mm 2 mps 749 mmHg 85%
    02:00 +9°C° 0 mm 2 mps 749 mmHg 86%
    03:00 +8°C° 0 mm 2 mps 749 mmHg 87%
    04:00 +8°C° 0 mm 2 mps 749 mmHg 87%
    05:00 +9°C° 0 mm 2 mps 749 mmHg 82%
    06:00 +11°C° 0 mm 3 mps 749 mmHg 77%
    07:00 +12°C° 0 mm 3 mps 750 mmHg 72%
    08:00 +13°C° 0 mm 3 mps 749 mmHg 69%
    09:00 +15°C° 0 mm 4 mps 749 mmHg 65%
    10:00 +17°C° 0 mm 4 mps 749 mmHg 62%
    11:00 +18°C° 0.2 mm 4 mps 749 mmHg 60%
    12:00 +18°C° 0.2 mm 4 mps 749 mmHg 59%
    13:00 +19°C° 0.2 mm 5 mps 749 mmHg 57%
    14:00 +19°C° 0.5 mm 5 mps 748 mmHg 62%
    15:00 +17°C° 0.5 mm 5 mps 748 mmHg 67%
    16:00 +16°C° 0.5 mm 5 mps 748 mmHg 72%
    17:00 +17°C° 0.1 mm 4 mps 748 mmHg 75%
    18:00 +17°C° 0.1 mm 4 mps 748 mmHg 77%
    19:00 +16°C° 0.1 mm 3 mps 748 mmHg 79%
    20:00 +14°C° 0 mm 3 mps 749 mmHg 83%
    21:00 +13°C° 0 mm 2 mps 749 mmHg 86%
    22:00 +12°C° 0 mm 2 mps 749 mmHg 90%
    23:00 +12°C° 0 mm 2 mps 750 mmHg 90%
    Mostrar más